SBI7520 UTAA-LTFG

Flight info

Callsign SBI7520
Flight time N/A
Altitude 36000
Route UTAA N0440F360 MAM29D MAMED B449 DUKAN N449 INDUR UN161 ERZ UL615 SIV UA285 MUT UT339 ELROP ELRO1D ROKDU BEPTO EVBUM MA08 RW08 LTFG
Aircraft B738/M-SDGIWZ/S

Departure

Time 2026-04-20 11:45
Airport Ashgabat International Airport (UTAA)

Arrival

Time N/A
Airport Gazipaşa-Alanya Airport (LTFG)
Time Latitude Longitude Altitude Speed Heading
2026-04-20 11:29 37.96718 58.37342 699 ft 0 kts 127°
2026-04-20 11:40 37.96723 58.37334 699 ft 2 kts 127°
2026-04-20 11:40 37.96741 58.37305 699 ft 5 kts 128°
2026-04-20 11:41 37.96772 58.37282 699 ft 4 kts 204°
2026-04-20 11:41 37.96778 58.37286 699 ft 2 kts 218°
2026-04-20 11:41 37.96744 58.37249 699 ft 10 kts 219°
2026-04-20 11:41 37.96685 58.37258 699 ft 11 kts 130°
2026-04-20 11:42 37.96624 58.37358 699 ft 12 kts 118°
2026-04-20 11:42 37.96655 58.37434 699 ft 10 kts 37°
2026-04-20 11:42 37.96715 58.37489 699 ft 11 kts 38°
2026-04-20 11:42 37.96779 58.37539 699 ft 11 kts 357°
2026-04-20 11:43 37.96878 58.37501 699 ft 18 kts 341°
2026-04-20 11:43 37.97022 58.37442 699 ft 23 kts 343°
2026-04-20 11:43 37.97143 58.37345 699 ft 18 kts 322°
2026-04-20 11:43 37.97241 58.37295 699 ft 13 kts
2026-04-20 11:44 37.97331 58.37300 699 ft 23 kts 313°
2026-04-20 11:44 37.97535 58.36851 699 ft 95 kts 298°
2026-04-20 11:44 37.97968 58.35880 699 ft 154 kts 298°
2026-04-20 11:44 37.98574 58.34522 753 ft 195 kts 299°
2026-04-20 11:45 37.99280 58.32953 1083 ft 218 kts 298°
2026-04-20 11:45 38.00071 58.31210 1599 ft 237 kts 298°
2026-04-20 11:45 38.00854 58.29400 2603 ft 231 kts 296°
2026-04-20 11:45 38.01628 58.27586 3105 ft 242 kts 297°
2026-04-20 11:46 38.02570 58.25785 3719 ft 249 kts 309°
2026-04-20 11:46 38.03880 58.24318 4373 ft 259 kts 326°
2026-04-20 11:46 38.05402 58.23101 5039 ft 267 kts 323°
2026-04-20 11:46 38.06941 58.21664 5670 ft 277 kts 321°
2026-04-20 11:47 38.08440 58.20194 6488 ft 278 kts 320°
2026-04-20 11:47 38.09985 58.18662 7077 ft 288 kts 320°
2026-04-20 11:47 38.11548 58.17099 7915 ft 286 kts 320°
2026-04-20 11:47 38.13084 58.15554 8690 ft 287 kts 319°
2026-04-20 11:48 38.14653 58.13970 9313 ft 292 kts 319°
2026-04-20 11:48 38.16241 58.12368 10034 ft 293 kts 319°
2026-04-20 11:48 38.17863 58.10728 10370 ft 309 kts 319°
2026-04-20 11:48 38.19617 58.08957 10507 ft 330 kts 319°
2026-04-20 11:49 38.21456 58.07106 10663 ft 348 kts 320°
2026-04-20 11:49 38.23365 58.05188 11197 ft 353 kts 320°
2026-04-20 11:49 38.25317 58.03223 11626 ft 361 kts 319°
2026-04-20 11:49 38.27258 58.01267 12260 ft 362 kts 319°
2026-04-20 11:50 38.29229 57.99280 12811 ft 365 kts 319°
2026-04-20 11:50 38.31233 57.97259 13361 ft 367 kts 319°
2026-04-20 11:50 38.33217 57.95258 13899 ft 369 kts 319°
2026-04-20 11:50 38.35246 57.93209 14411 ft 372 kts 319°
2026-04-20 11:51 38.37266 57.91167 14911 ft 374 kts 319°
2026-04-20 11:51 38.39308 57.89104 15397 ft 376 kts 319°
2026-04-20 11:51 38.41360 57.87032 15872 ft 378 kts 319°
2026-04-20 11:51 38.43422 57.84951 16326 ft 380 kts 319°
2026-04-20 11:52 38.45489 57.82864 16770 ft 382 kts 319°
2026-04-20 11:52 38.47551 57.80783 17203 ft 384 kts 319°
2026-04-20 11:52 38.49665 57.78651 17625 ft 386 kts 319°
2026-04-20 11:52 38.51781 57.76517 18028 ft 388 kts 319°
2026-04-20 11:53 38.53892 57.74388 18436 ft 390 kts 319°
2026-04-20 11:53 38.56010 57.72253 18813 ft 392 kts 319°
2026-04-20 11:53 38.58143 57.70105 19188 ft 394 kts 319°
2026-04-20 11:53 38.60206 57.67767 19525 ft 393 kts 308°
2026-04-20 11:54 38.61717 57.64915 19917 ft 389 kts 298°
2026-04-20 11:54 38.62982 57.61854 20244 ft 391 kts 292°
2026-04-20 11:54 38.63950 57.58628 20589 ft 390 kts 288°
2026-04-20 11:54 38.64864 57.55352 20932 ft 392 kts 289°
2026-04-20 11:55 38.65816 57.52083 21224 ft 394 kts 289°
2026-04-20 11:55 38.66764 57.48832 21597 ft 394 kts 289°
2026-04-20 11:55 38.67724 57.45493 21862 ft 397 kts 289°
2026-04-20 11:55 38.68663 57.42211 22196 ft 397 kts 289°
2026-04-20 11:56 38.69609 57.38901 22497 ft 398 kts 289°
2026-04-20 11:56 38.70567 57.35545 22797 ft 399 kts 289°
2026-04-20 11:56 38.71518 57.32202 23096 ft 400 kts 288°
2026-04-20 11:56 38.72467 57.28862 23359 ft 402 kts 288°
2026-04-20 11:57 38.73429 57.25470 23626 ft 404 kts 288°
2026-04-20 11:57 38.74381 57.22109 23848 ft 406 kts 288°
2026-04-20 11:57 38.75334 57.18738 24170 ft 405 kts 288°
2026-04-20 11:57 38.76293 57.15341 24431 ft 406 kts 288°
2026-04-20 11:58 38.77261 57.11908 24673 ft 408 kts 288°
2026-04-20 11:58 38.78217 57.08513 24934 ft 408 kts 288°
2026-04-20 11:58 38.79170 57.05124 25186 ft 409 kts 288°
2026-04-20 11:58 38.80131 57.01701 25430 ft 409 kts 288°
2026-04-20 11:59 38.81102 56.98237 25667 ft 410 kts 288°
2026-04-20 11:59 38.82061 56.94811 25916 ft 410 kts 288°
2026-04-20 11:59 38.83014 56.91405 26126 ft 411 kts 288°
2026-04-20 11:59 38.83979 56.87950 26370 ft 411 kts 288°
2026-04-20 12:00 38.84942 56.84499 26566 ft 412 kts 288°
2026-04-20 12:00 38.85904 56.81036 26703 ft 414 kts 288°
2026-04-20 12:00 38.86862 56.77587 26918 ft 414 kts 288°
2026-04-20 12:00 38.87827 56.74110 27087 ft 415 kts 288°
2026-04-20 12:01 38.88791 56.70631 27269 ft 416 kts 288°
2026-04-20 12:01 38.89762 56.67135 27426 ft 417 kts 288°
2026-04-20 12:01 38.90741 56.63616 27587 ft 418 kts 288°
2026-04-20 12:01 38.91716 56.60110 27833 ft 417 kts 288°
2026-04-20 12:02 38.92674 56.56641 27931 ft 419 kts 287°
2026-04-20 12:02 38.93648 56.53075 28080 ft 419 kts 287°
2026-04-20 12:02 38.94604 56.49565 28237 ft 420 kts 287°
2026-04-20 12:02 38.95564 56.46053 28404 ft 420 kts 287°
2026-04-20 12:03 38.96543 56.42490 28542 ft 421 kts 288°
2026-04-20 12:03 38.97518 56.38961 28671 ft 422 kts 288°
2026-04-20 12:03 38.98490 56.35430 28850 ft 421 kts 288°
2026-04-20 12:03 38.99474 56.31842 28982 ft 422 kts 287°
2026-04-20 12:04 39.01268 56.24710 29252 ft 422 kts 283°
2026-04-20 12:04 39.02888 56.17403 29471 ft 424 kts 284°
2026-04-20 12:05 39.04525 56.10299 29720 ft 424 kts 284°
2026-04-20 12:05 39.05352 56.06690 29914 ft 423 kts 284°
2026-04-20 12:05 39.06181 56.03054 30118 ft 421 kts 284°
2026-04-20 12:06 39.06989 55.99481 30336 ft 419 kts 284°
2026-04-20 12:06 39.07794 55.95878 30535 ft 417 kts 284°
2026-04-20 12:06 39.08597 55.92288 30719 ft 416 kts 284°
2026-04-20 12:06 39.09394 55.88746 30833 ft 417 kts 284°
2026-04-20 12:07 39.11021 55.81587 30999 ft 418 kts 284°
2026-04-20 12:07 39.11845 55.77989 31114 ft 418 kts 284°
2026-04-20 12:07 39.12661 55.74393 31206 ft 419 kts 284°
2026-04-20 12:08 39.13467 55.70789 31333 ft 418 kts 284°
2026-04-20 12:08 39.14254 55.67248 31554 ft 415 kts 284°
2026-04-20 12:08 39.15046 55.63686 31824 ft 411 kts 284°
2026-04-20 12:08 39.15832 55.60160 31989 ft 410 kts 284°
2026-04-20 12:09 39.17402 55.53091 32171 ft 411 kts 284°
2026-04-20 12:09 39.18959 55.46055 32331 ft 411 kts 284°
2026-04-20 12:10 39.20549 55.38939 32506 ft 412 kts 284°
2026-04-20 12:10 39.22127 55.31865 32705 ft 412 kts 284°
2026-04-20 12:11 39.23701 55.24777 32890 ft 412 kts 284°
2026-04-20 12:11 39.24480 55.21255 33090 ft 409 kts 284°
2026-04-20 12:11 39.25254 55.17757 33270 ft 407 kts 284°
2026-04-20 12:12 39.26781 55.10754 33427 ft 408 kts 283°
2026-04-20 12:12 39.28289 55.03696 33601 ft 408 kts 283°
2026-04-20 12:13 39.29797 54.96687 33781 ft 407 kts 283°
2026-04-20 12:13 39.31315 54.89639 33989 ft 406 kts 283°
2026-04-20 12:14 39.32822 54.82608 34141 ft 406 kts 283°
2026-04-20 12:14 39.34317 54.75639 34302 ft 406 kts 283°
2026-04-20 12:15 39.35857 54.68629 34484 ft 405 kts 284°
2026-04-20 12:15 39.37383 54.61620 34655 ft 404 kts 283°
2026-04-20 12:16 39.38847 54.54668 34837 ft 403 kts 283°
2026-04-20 12:16 39.39571 54.51165 34962 ft 401 kts 283°
2026-04-20 12:16 39.40291 54.47701 35051 ft 401 kts 283°
2026-04-20 12:17 39.41754 54.40772 35212 ft 400 kts 283°
2026-04-20 12:17 39.43254 54.33836 35394 ft 399 kts 283°
2026-04-20 12:18 39.44724 54.26978 35560 ft 398 kts 283°
2026-04-20 12:18 39.46180 54.20108 35722 ft 397 kts 283°
2026-04-20 12:19 39.46904 54.16669 35829 ft 396 kts 283°
2026-04-20 12:19 39.47630 54.13192 35852 ft 398 kts 282°
2026-04-20 12:19 39.49031 54.06304 35860 ft 400 kts 282°
2026-04-20 12:20 39.50453 53.99346 35857 ft 401 kts 283°
2026-04-20 12:20 39.51896 53.92370 35858 ft 400 kts 283°
2026-04-20 12:21 39.53296 53.85442 35857 ft 399 kts 282°
2026-04-20 12:21 39.54688 53.78482 35858 ft 400 kts 282°
2026-04-20 12:22 39.56091 53.71516 35857 ft 401 kts 283°
2026-04-20 12:22 39.57497 53.64558 35858 ft 399 kts 282°
2026-04-20 12:23 39.58887 53.57617 35857 ft 399 kts 283°
2026-04-20 12:23 39.60281 53.50650 35858 ft 401 kts 282°
2026-04-20 12:24 39.61669 53.43666 35856 ft 400 kts 283°
2026-04-20 12:24 39.63074 53.36727 35857 ft 399 kts 283°
2026-04-20 12:25 39.64482 53.29732 35859 ft 401 kts 282°
2026-04-20 12:25 39.65845 53.22770 35857 ft 400 kts 282°
2026-04-20 12:26 39.67194 53.15781 35858 ft 399 kts 282°
2026-04-20 12:26 39.68553 53.08823 35859 ft 400 kts 282°
2026-04-20 12:27 39.69909 53.01850 35857 ft 399 kts 282°
2026-04-20 12:27 39.71294 52.94873 35859 ft 401 kts 282°
2026-04-20 12:28 39.72693 52.87838 35857 ft 404 kts 282°
2026-04-20 12:28 39.74060 52.80789 35856 ft 404 kts 282°
2026-04-20 12:29 39.75441 52.73706 35858 ft 405 kts 282°
2026-04-20 12:29 39.76819 52.66634 35856 ft 403 kts 282°
2026-04-20 12:30 39.78188 52.59597 35857 ft 403 kts 282°
2026-04-20 12:30 39.79590 52.52513 35860 ft 405 kts 283°
2026-04-20 12:31 39.80985 52.45469 35856 ft 404 kts 283°
2026-04-20 12:31 39.82368 52.38379 35857 ft 404 kts 282°
2026-04-20 12:32 39.83749 52.31317 35856 ft 405 kts 282°
2026-04-20 12:32 39.85121 52.24238 35857 ft 404 kts 282°
2026-04-20 12:33 39.86427 52.17303 35856 ft 404 kts 281°
2026-04-20 12:33 39.87762 52.10235 35859 ft 405 kts 281°
2026-04-20 12:34 39.89109 52.03159 35857 ft 404 kts 282°
2026-04-20 12:34 39.90496 51.96072 35858 ft 402 kts 282°
2026-04-20 12:35 39.91849 51.89021 35856 ft 404 kts 282°
2026-04-20 12:35 39.93197 51.81937 35860 ft 403 kts 282°
2026-04-20 12:36 39.94535 51.74847 35858 ft 404 kts 282°
2026-04-20 12:36 39.95875 51.67747 35857 ft 404 kts 282°
2026-04-20 12:37 39.97193 51.60699 35858 ft 404 kts 282°
2026-04-20 12:37 39.98519 51.53560 35875 ft 404 kts 282°
2026-04-20 12:38 39.99642 51.46431 35900 ft 401 kts 276°
2026-04-20 12:38 40.00306 51.39216 35926 ft 401 kts 276°
2026-04-20 12:39 40.01503 51.28461 35939 ft 402 kts 276°
2026-04-20 12:40 40.02253 51.21233 35939 ft 402 kts 276°
2026-04-20 12:40 40.02968 51.13994 35939 ft 402 kts 276°
2026-04-20 12:41 40.03697 51.06810 35938 ft 399 kts 276°
2026-04-20 12:41 40.04481 50.99703 35940 ft 398 kts 277°
2026-04-20 12:42 40.05213 50.92567 35938 ft 396 kts 276°
2026-04-20 12:42 40.05930 50.85483 35939 ft 393 kts 277°
2026-04-20 12:43 40.06698 50.78457 35939 ft 392 kts 277°
2026-04-20 12:43 40.07433 50.71424 35941 ft 393 kts 276°
2026-04-20 12:44 40.08090 50.64325 35936 ft 393 kts 276°
2026-04-20 12:44 40.08781 50.57291 35937 ft 392 kts 277°
2026-04-20 12:45 40.09469 50.50237 35941 ft 394 kts 276°
2026-04-20 12:45 40.10148 50.43150 35938 ft 395 kts 277°
2026-04-20 12:46 40.10901 50.36068 35939 ft 394 kts 277°
2026-04-20 12:46 40.11642 50.28993 35939 ft 392 kts 276°
2026-04-20 12:47 40.12363 50.21978 35939 ft 392 kts 276°
2026-04-20 12:47 40.13043 50.14873 35938 ft 393 kts 276°
2026-04-20 12:48 40.13703 50.07788 35937 ft 394 kts 276°
2026-04-20 12:48 40.14302 50.00718 35941 ft 392 kts 275°
2026-04-20 12:49 40.14908 49.93632 35937 ft 393 kts 276°
2026-04-20 12:49 40.15579 49.86569 35940 ft 392 kts 277°
2026-04-20 12:50 40.16261 49.79493 35940 ft 394 kts 275°
2026-04-20 12:50 40.16875 49.72410 35938 ft 392 kts 276°
2026-04-20 12:51 40.17599 49.65416 35940 ft 391 kts 277°
2026-04-20 12:51 40.18302 49.58334 35938 ft 393 kts 276°
2026-04-20 12:52 40.18868 49.51208 35938 ft 393 kts 273°
2026-04-20 12:52 40.18895 49.44125 35937 ft 390 kts 269°
2026-04-20 12:53 40.18866 49.37101 35939 ft 391 kts 271°
2026-04-20 12:53 40.18899 49.29970 35938 ft 392 kts 269°
2026-04-20 12:54 40.18876 49.22846 35938 ft 394 kts 270°
2026-04-20 12:54 40.18870 49.15702 35942 ft 392 kts 270°
2026-04-20 12:55 40.18864 49.08647 35938 ft 389 kts 269°
2026-04-20 12:55 40.18763 49.01574 35939 ft 387 kts 269°
2026-04-20 12:56 40.18726 48.94591 35936 ft 386 kts 271°
2026-04-20 12:56 40.18729 48.87576 35914 ft 386 kts 270°
2026-04-20 12:57 40.18641 48.80542 35889 ft 387 kts 270°
2026-04-20 12:57 40.18606 48.73518 35864 ft 385 kts 271°
2026-04-20 12:58 40.18628 48.66553 35859 ft 386 kts 271°
2026-04-20 12:58 40.18603 48.59518 35857 ft 388 kts 270°
2026-04-20 12:59 40.18478 48.52488 35857 ft 385 kts 270°
2026-04-20 12:59 40.18377 48.45520 35859 ft 386 kts 270°
2026-04-20 13:00 40.18312 48.38493 35856 ft 388 kts 270°
2026-04-20 13:00 40.18298 48.31447 35855 ft 386 kts 270°
2026-04-20 13:01 40.18264 48.24472 35860 ft 386 kts 269°
2026-04-20 13:01 40.18173 48.17484 35857 ft 385 kts 269°
2026-04-20 13:02 40.18098 48.10494 35857 ft 385 kts 269°
2026-04-20 13:02 40.18017 48.03489 35859 ft 386 kts 270°
2026-04-20 13:03 40.17937 47.96525 35858 ft 386 kts 270°
2026-04-20 13:03 40.17833 47.89506 35858 ft 387 kts 269°
2026-04-20 13:04 40.17746 47.82479 35856 ft 386 kts 270°
2026-04-20 13:04 40.17558 47.75518 35859 ft 386 kts 269°
2026-04-20 13:05 40.17370 47.68509 35858 ft 385 kts 269°
2026-04-20 13:05 40.17283 47.61541 35857 ft 387 kts 270°
2026-04-20 13:06 40.17248 47.54523 35858 ft 386 kts 270°
2026-04-20 13:06 40.17160 47.47522 35857 ft 386 kts 269°
2026-04-20 13:07 40.17033 47.40521 35855 ft 387 kts 270°
2026-04-20 13:07 40.16912 47.33530 35857 ft 386 kts 269°
2026-04-20 13:08 40.16787 47.26514 35859 ft 386 kts 269°
2026-04-20 13:08 40.16626 47.19511 35884 ft 386 kts 269°
2026-04-20 13:09 40.16512 47.12519 35905 ft 385 kts 269°
2026-04-20 13:09 40.16368 47.05520 35932 ft 386 kts 269°
2026-04-20 13:10 40.16226 46.98524 35938 ft 385 kts 269°
2026-04-20 13:10 40.16075 46.91535 35940 ft 387 kts 269°
2026-04-20 13:11 40.15912 46.84530 35937 ft 386 kts 268°
2026-04-20 13:11 40.15744 46.77540 35938 ft 387 kts 268°
2026-04-20 13:12 40.15564 46.70494 35938 ft 388 kts 268°
2026-04-20 13:12 40.15388 46.63466 35938 ft 386 kts 268°
2026-04-20 13:13 40.15148 46.56461 35940 ft 388 kts 267°
2026-04-20 13:13 40.14958 46.49454 35940 ft 388 kts 268°
2026-04-20 13:14 40.14819 46.42403 35938 ft 386 kts 268°
2026-04-20 13:14 40.14641 46.35422 35939 ft 386 kts 268°
2026-04-20 13:15 40.14411 46.28397 35938 ft 388 kts 266°
2026-04-20 13:15 40.14155 46.21389 35938 ft 386 kts 267°
2026-04-20 13:16 40.13934 46.14421 35939 ft 387 kts 267°
2026-04-20 13:16 40.13710 46.07420 35939 ft 386 kts 267°
2026-04-20 13:17 40.13500 46.00418 35938 ft 386 kts 267°
2026-04-20 13:17 40.13318 45.93372 35938 ft 388 kts 269°
2026-04-20 13:18 40.13394 45.86405 35940 ft 387 kts 270°
2026-04-20 13:18 40.13452 45.79366 35936 ft 388 kts 269°
2026-04-20 13:19 40.13408 45.72348 35928 ft 387 kts 269°
2026-04-20 13:19 40.13396 45.65334 35923 ft 386 kts 269°
2026-04-20 13:20 40.13362 45.58353 35917 ft 388 kts 269°
2026-04-20 13:20 40.13335 45.51275 35901 ft 387 kts 269°
2026-04-20 13:21 40.13324 45.44277 35889 ft 386 kts 269°
2026-04-20 13:21 40.13306 45.37294 35876 ft 387 kts 269°
2026-04-20 13:22 40.13284 45.30244 35875 ft 387 kts 269°
2026-04-20 13:22 40.13242 45.23253 35877 ft 386 kts 269°
2026-04-20 13:23 40.13214 45.16234 35884 ft 387 kts 269°
2026-04-20 13:23 40.13180 45.09229 35885 ft 387 kts 268°
2026-04-20 13:24 40.13127 45.02238 35886 ft 385 kts 268°
2026-04-20 13:24 40.13059 44.95246 35884 ft 384 kts 268°
2026-04-20 13:25 40.13024 44.88274 35884 ft 386 kts 268°
2026-04-20 13:25 40.13096 44.81316 35885 ft 385 kts 269°
2026-04-20 13:26 40.13091 44.74291 35882 ft 386 kts 267°
2026-04-20 13:26 40.13026 44.67357 35887 ft 384 kts 267°
2026-04-20 13:27 40.12968 44.60355 35887 ft 382 kts 268°
2026-04-20 13:27 40.12888 44.53459 35883 ft 384 kts 267°
2026-04-20 13:28 40.12735 44.46482 35885 ft 385 kts 266°
2026-04-20 13:28 40.12565 44.39474 35883 ft 384 kts 266°
2026-04-20 13:29 40.12444 44.32523 35885 ft 385 kts 266°
2026-04-20 13:29 40.12351 44.25576 35885 ft 384 kts 267°
2026-04-20 13:30 40.12263 44.18578 35880 ft 384 kts 266°
2026-04-20 13:30 40.12170 44.11634 35882 ft 384 kts 267°
2026-04-20 13:31 40.12065 44.04646 35871 ft 385 kts 267°
2026-04-20 13:31 40.11980 43.97685 35868 ft 383 kts 267°
2026-04-20 13:32 40.11906 43.90768 35862 ft 385 kts 267°
2026-04-20 13:32 40.11872 43.83793 35859 ft 384 kts 267°
2026-04-20 13:33 40.11794 43.76821 35857 ft 386 kts 267°
2026-04-20 13:33 40.11689 43.69820 35860 ft 383 kts 268°
2026-04-20 13:34 40.11512 43.62875 35861 ft 383 kts 264°
2026-04-20 13:34 40.11017 43.55942 35857 ft 385 kts 264°
2026-04-20 13:35 40.10627 43.48980 35858 ft 384 kts 266°
2026-04-20 13:35 40.10314 43.42044 35857 ft 384 kts 265°
2026-04-20 13:36 40.09951 43.35109 35875 ft 384 kts 265°
2026-04-20 13:36 40.09578 43.28178 35893 ft 383 kts 264°
2026-04-20 13:37 40.09143 43.21251 35910 ft 384 kts 263°
2026-04-20 13:37 40.08716 43.14325 35914 ft 385 kts 264°
2026-04-20 13:38 40.08338 43.07295 35913 ft 389 kts 264°
2026-04-20 13:38 40.07958 43.00256 35913 ft 392 kts 263°
2026-04-20 13:39 40.07516 42.93172 35911 ft 392 kts 262°
2026-04-20 13:39 40.07023 42.86079 35911 ft 394 kts 262°
2026-04-20 13:40 40.06628 42.78993 35911 ft 394 kts 263°
2026-04-20 13:40 40.06239 42.71856 35912 ft 392 kts 263°
2026-04-20 13:41 40.05853 42.64777 35910 ft 391 kts 263°
2026-04-20 13:41 40.05411 42.57683 35914 ft 394 kts 263°
2026-04-20 13:42 40.04899 42.50616 35912 ft 395 kts 262°
2026-04-20 13:42 40.04180 42.39979 35914 ft 393 kts 263°
2026-04-20 13:43 40.03664 42.32885 35910 ft 392 kts 262°
2026-04-20 13:43 40.03211 42.25779 35915 ft 393 kts 263°
2026-04-20 13:44 40.02761 42.18690 35908 ft 394 kts 262°
2026-04-20 13:44 40.02233 42.11593 35912 ft 393 kts 262°
2026-04-20 13:45 40.01691 42.04510 35913 ft 394 kts 262°
2026-04-20 13:45 40.01178 41.97406 35913 ft 393 kts 262°
2026-04-20 13:46 40.00737 41.90294 35909 ft 394 kts 263°
2026-04-20 13:46 40.00283 41.83237 35912 ft 391 kts 262°
2026-04-20 13:47 39.99792 41.76169 35914 ft 393 kts 262°
2026-04-20 13:47 39.99260 41.69105 35914 ft 395 kts 262°
2026-04-20 13:48 39.98679 41.62029 35910 ft 392 kts 262°
2026-04-20 13:48 39.98181 41.54939 35912 ft 395 kts 262°
2026-04-20 13:49 39.97725 41.47853 35914 ft 394 kts 263°
2026-04-20 13:49 39.97187 41.40785 35911 ft 391 kts 262°
2026-04-20 13:50 39.96611 41.33724 35914 ft 391 kts 261°
2026-04-20 13:50 39.96068 41.26699 35912 ft 394 kts 261°
2026-04-20 13:51 39.95570 41.19604 35910 ft 392 kts 265°
2026-04-20 13:51 39.95638 41.12509 35913 ft 394 kts 268°
2026-04-20 13:52 39.95745 41.05386 35912 ft 396 kts 267°
2026-04-20 13:52 39.95751 40.98225 35911 ft 396 kts 267°
2026-04-20 13:53 39.95754 40.91083 35913 ft 395 kts 266°
2026-04-20 13:53 39.95752 40.83921 35910 ft 395 kts 266°
2026-04-20 13:54 39.95743 40.76804 35913 ft 394 kts 266°
2026-04-20 13:54 39.95718 40.69644 35912 ft 396 kts 266°
2026-04-20 13:55 39.95684 40.62516 35912 ft 396 kts 266°
2026-04-20 13:55 39.95651 40.55351 35911 ft 394 kts 266°
2026-04-20 13:56 39.95620 40.48250 35920 ft 396 kts 266°
2026-04-20 13:56 39.95561 40.41074 35926 ft 396 kts 265°
2026-04-20 13:57 39.95444 40.33902 35936 ft 395 kts 265°
2026-04-20 13:57 39.95363 40.26794 35938 ft 396 kts 265°
2026-04-20 13:58 39.95299 40.19626 35938 ft 395 kts 265°
2026-04-20 13:58 39.95237 40.12497 35938 ft 395 kts 265°
2026-04-20 13:59 39.95173 40.05302 35939 ft 397 kts 265°
2026-04-20 13:59 39.95100 39.98188 35937 ft 392 kts 265°